Погода в Гарьяне

Ливия     32°09′55″N   13°01′27″E
темп.,
°C
ветер,
м/с
пор.,
м/с
влажн.,
%
обл.,
%
осадки,
мм/ч
давл.,
гПа
погр.,
м
19 апреля, пн
пн1923:00+13всв228198 0.0 102017
02:00+12юз11835 0.0 102012
05:00+10сз12907 0.0 102010
08:00+12сз0186100 0.0 1021254
11:00+16ссз23555 0.0 10221134
14:00+20сз453128 0.0 10201959
17:00+19с75380 0.0 10191241
20:00+14ссв45480 0.0 1021433
20 апреля, вт
вт2023:00+12в22562 0.0 102237
02:00+12ююв44490 0.0 102143
05:00+11ю33465 0.0 102027
08:00+13ююв45405 0.0 1020170
11:00+21ю44250 0.0 10191290
14:00+24зюз23150 0.0 10172430
17:00+26зсз131311 0.0 10152926
20:00+20св47295 0.0 1015137
21 апреля, ср
ср2123:00+19юв342924 0.0 101663
02:00+16ю23338 0.0 101752
05:00+16ююв58335 0.0 1016115
08:00+18ю612300 0.0 1015293
11:00+26ю1010200 0.0 1015783
14:00+29ю85170 0.0 10142314
17:00+30ююв65169 0.0 10123133
20:00+26юв813212 0.0 1012267
22 апреля, чт
чт2223:00+22ююв1119250 0.0 1014333
02:00+21ююв1119265 0.0 1012320
05:00+20ююв919261 0.0 1012293
08:00+22ююв918220 0.0 1012405
11:00+29ююв1113150 0.0 1012659
14:00+33ю109125 0.0 10101629
17:00+33ю77134 0.0 10082381
20:00+29юв81318100 0.0 1007244
23 апреля, пт
пт2323:00+27юв9181893 0.0 1008384
02:00+27ююв13231541 0.0 1006417
05:00+25ю91717100 0.0 1005259
08:00+26ю61317100 0.0 1005296
11:00+34зюз681199 0.0 10061316
14:00+27зсз111036100 0.0 10091063
17:00+22сз9951100 0.0 1010828
20:00+19сз4761100 0.0 1012467